Time,TemperatureF,DewpointF,PressureIn,WindDirection,WindDirectionDegrees,WindSpeedMPH,WindSpeedGustMPH,Humidity,HourlyPrecipIn,Conditions,Clouds,dailyrainin,SolarRadiationWatts/m^2,SoftwareType,DateUTC
2013-11-07 00:00:00,29.1,17.0,30.45,WNW,282,0.0,12.0,60,0.00,,,0.00,0.00,VWS V14.00,2013-11-07 07:00:00,
2013-11-07 00:03:00,29.0,16.9,30.45,NW,314,0.0,5.0,60,0.00,,,0.00,0.00,VWS V14.00,2013-11-07 07:03:00,
2013-11-07 00:08:00,28.9,16.8,30.45,NW,325,0.0,12.0,60,0.00,,,0.00,0.00,VWS V14.00,2013-11-07 07:08:00,
2013-11-07 00:13:00,28.9,16.8,30.45,NW,313,0.0,12.0,60,0.00,,,0.00,0.00,VWS V14.00,2013-11-07 07:13:00,
2013-11-07 00:15:00,28.9,16.8,30.45,WNW,297,1.0,12.0,60,0.00,,,0.00,0.00,VWS V14.00,2013-11-07 07:15:00,
2013-11-07 00:18:00,28.9,16.8,30.45,West,279,0.0,14.0,60,0.00,,,0.00,0.00,VWS V14.00,2013-11-07 07:18:00,
2013-11-07 00:23:00,28.9,17.2,30.45,WNW,299,0.0,14.0,61,0.00,,,0.00,0.00,VWS V14.00,2013-11-07 07:23:00,
2013-11-07 00:29:00,28.8,17.1,30.46,WNW,302,6.0,20.0,61,0.00,,,0.00,0.00,VWS V14.00,2013-11-07 07:29:00,
2013-11-07 00:30:00,28.8,17.1,30.46,WNW,290,0.0,20.0,61,0.00,,,0.00,0.00,VWS V14.00,2013-11-07 07:30:00,
2013-11-07 00:34:00,28.8,17.1,30.46,WNW,288,6.0,8.0,61,0.00,,,0.00,0.00,VWS V14.00,2013-11-07 07:34:00,
2013-11-07 00:39:00,28.7,17.0,30.46,West,272,13.0,13.0,61,0.00,,,0.00,0.00,VWS V14.00,2013-11-07 07:39:00,
2013-11-07 00:44:00,28.7,17.3,30.45,WSW,242,3.0,19.0,62,0.00,,,0.00,0.00,VWS V14.00,2013-11-07 07:44:00,
2013-11-07 00:45:00,28.7,17.3,30.45,SW,232,1.0,19.0,62,0.00,,,0.00,0.00,VWS V14.00,2013-11-07 07:45:00,
2013-11-07 00:49:00,28.7,17.3,30.46,West,267,3.0,21.0,62,0.00,,,0.00,0.00,VWS V14.00,2013-11-07 07:49:00,
2013-11-07 00:54:00,28.6,17.2,30.46,WSW,248,1.0,21.0,62,0.00,,,0.00,0.00,VWS V14.00,2013-11-07 07:54:00,
2013-11-07 00:59:00,28.5,17.1,30.46,WNW,282,0.0,21.0,62,0.00,,,0.00,0.00,VWS V14.00,2013-11-07 07:59:00,
2013-11-07 01:00:00,28.5,17.1,30.46,SSW,209,0.0,21.0,62,0.00,,,0.00,0.00,VWS V14.00,2013-11-07 08:00:00,
2013-11-07 01:04:00,28.5,17.1,30.46,WSW,246,3.0,12.0,62,0.00,,,0.00,0.00,VWS V14.00,2013-11-07 08:04:00,
2013-11-07 01:09:00,28.4,17.4,30.46,West,276,5.0,12.0,63,0.00,,,0.00,0.00,VWS V14.00,2013-11-07 08:09:00,
2013-11-07 01:14:00,28.4,17.4,30.46,West,261,1.0,12.0,63,0.00,,,0.00,0.00,VWS V14.00,2013-11-07 08:14:00,
2013-11-07 01:15:00,28.4,17.4,30.47,WNW,287,2.0,12.0,63,0.00,,,0.00,0.00,VWS V14.00,2013-11-07 08:15:00,
2013-11-07 01:19:00,28.3,17.3,30.47,West,260,0.0,7.0,63,0.00,,,0.00,0.00,VWS V14.00,2013-11-07 08:19:00,
2013-11-07 01:24:00,28.4,17.4,30.47,WNW,302,4.0,20.0,63,0.00,,,0.00,0.00,VWS V14.00,2013-11-07 08:24:00,
2013-11-07 01:29:00,28.4,17.4,30.47,West,274,6.0,20.0,63,0.00,,,0.00,0.00,VWS V14.00,2013-11-07 08:29:00,
2013-11-07 01:30:00,28.5,17.5,30.46,West,281,0.0,20.0,63,0.00,,,0.00,0.00,VWS V14.00,2013-11-07 08:30:00,
2013-11-07 01:34:00,28.6,17.2,30.47,WNW,294,1.0,19.0,62,0.00,,,0.00,0.00,VWS V14.00,2013-11-07 08:34:00,
2013-11-07 01:39:00,28.7,17.3,30.46,NW,317,0.0,19.0,62,0.00,,,0.00,0.00,VWS V14.00,2013-11-07 08:39:00,
2013-11-07 01:44:00,28.7,17.3,30.46,NW,311,1.0,19.0,62,0.00,,,0.00,0.00,VWS V14.00,2013-11-07 08:44:00,
2013-11-07 01:45:00,28.7,17.3,30.46,West,281,0.0,19.0,62,0.00,,,0.00,0.00,VWS V14.00,2013-11-07 08:45:00,
2013-11-07 01:49:00,28.7,17.3,30.46,NNW,341,5.0,10.0,62,0.00,,,0.00,0.00,VWS V14.00,2013-11-07 08:49:00,
2013-11-07 01:55:00,28.8,17.4,30.45,West,278,0.0,11.0,62,0.00,,,0.00,0.00,VWS V14.00,2013-11-07 08:55:00,
2013-11-07 02:00:00,28.8,17.4,30.45,NW,316,0.0,11.0,62,0.00,,,0.00,0.00,VWS V14.00,2013-11-07 09:00:00,
2013-11-07 02:05:00,28.8,17.4,30.45,NW,322,0.0,14.0,62,0.00,,,0.00,0.00,VWS V14.00,2013-11-07 09:05:00,
2013-11-07 02:10:00,28.9,17.5,30.45,WSW,244,1.0,16.0,62,0.00,,,0.00,0.00,VWS V14.00,2013-11-07 09:10:00,
2013-11-07 02:15:00,29.0,17.2,30.46,SSW,210,0.0,16.0,61,0.00,,,0.00,0.00,VWS V14.00,2013-11-07 09:15:00,
2013-11-07 02:20:00,29.1,17.3,30.46,SW,217,1.0,12.0,61,0.00,,,0.00,0.00,VWS V14.00,2013-11-07 09:20:00,
2013-11-07 02:25:00,29.2,17.4,30.46,NW,323,5.0,12.0,61,0.00,,,0.00,0.00,VWS V14.00,2013-11-07 09:25:00,
2013-11-07 02:30:00,29.2,17.4,30.46,WNW,292,0.0,13.0,61,0.00,,,0.00,0.00,VWS V14.00,2013-11-07 09:30:00,
2013-11-07 02:35:00,29.2,17.4,30.47,WSW,252,3.0,9.0,61,0.00,,,0.00,0.00,VWS V14.00,2013-11-07 09:35:00,
2013-11-07 02:40:00,29.2,17.4,30.47,WNW,297,0.0,9.0,61,0.00,,,0.00,0.00,VWS V14.00,2013-11-07 09:40:00,
2013-11-07 02:45:00,29.2,17.4,30.45,West,279,0.0,13.0,61,0.00,,,0.00,0.00,VWS V14.00,2013-11-07 09:45:00,
2013-11-07 02:50:00,29.2,17.4,30.45,West,276,0.0,12.0,61,0.00,,,0.00,0.00,VWS V14.00,2013-11-07 09:50:00,
2013-11-07 02:55:00,29.3,17.5,30.45,WNW,287,7.0,16.0,61,0.00,,,0.00,0.00,VWS V14.00,2013-11-07 09:55:00,
2013-11-07 03:00:00,29.3,17.5,30.45,WSW,252,11.0,18.0,61,0.00,,,0.00,0.00,VWS V14.00,2013-11-07 10:00:00,
2013-11-07 03:05:00,29.4,17.6,30.45,SSW,201,7.0,19.0,61,0.00,,,0.00,0.00,VWS V14.00,2013-11-07 10:05:00,
2013-11-07 03:11:00,29.3,17.5,30.45,SSE,156,4.0,19.0,61,0.00,,,0.00,0.00,VWS V14.00,2013-11-07 10:11:00,
2013-11-07 03:15:00,29.3,17.5,30.45,West,263,6.0,19.0,61,0.00,,,0.00,0.00,VWS V14.00,2013-11-07 10:15:00,
2013-11-07 03:16:00,29.3,17.5,30.45,WSW,248,1.0,6.0,61,0.00,,,0.00,0.00,VWS V14.00,2013-11-07 10:16:00,
2013-11-07 03:21:00,29.3,17.5,30.44,WSW,257,3.0,19.0,61,0.00,,,0.00,0.00,VWS V14.00,2013-11-07 10:21:00,
2013-11-07 03:26:00,29.3,17.5,30.44,West,275,9.0,20.0,61,0.00,,,0.00,0.00,VWS V14.00,2013-11-07 10:26:00,
2013-11-07 03:30:00,29.4,17.6,30.44,NW,308,7.0,21.0,61,0.00,,,0.00,0.00,VWS V14.00,2013-11-07 10:30:00,
2013-11-07 03:31:00,29.4,17.6,30.44,WNW,284,6.0,7.0,61,0.00,,,0.00,0.00,VWS V14.00,2013-11-07 10:31:00,
2013-11-07 03:36:00,29.5,17.7,30.44,WNW,291,5.0,28.0,61,0.00,,,0.00,0.00,VWS V14.00,2013-11-07 10:36:00,
2013-11-07 03:41:00,29.6,17.8,30.43,South,171,4.0,28.0,61,0.00,,,0.00,0.00,VWS V14.00,2013-11-07 10:41:00,
2013-11-07 03:45:00,29.7,17.5,30.44,WNW,298,6.0,28.0,60,0.00,,,0.00,0.00,VWS V14.00,2013-11-07 10:45:00,
2013-11-07 03:46:00,29.6,17.4,30.44,NNW,330,6.0,13.0,60,0.00,,,0.00,0.00,VWS V14.00,2013-11-07 10:46:00,
2013-11-07 03:51:00,29.7,17.5,30.44,West,276,5.0,16.0,60,0.00,,,0.00,0.00,VWS V14.00,2013-11-07 10:51:00,
2013-11-07 03:56:00,29.7,17.5,30.44,West,271,11.0,17.0,60,0.00,,,0.00,0.00,VWS V14.00,2013-11-07 10:56:00,
2013-11-07 04:00:00,29.7,17.5,30.43,West,273,8.0,31.0,60,0.00,,,0.00,0.00,VWS V14.00,2013-11-07 11:00:00,
2013-11-07 04:01:00,29.8,17.6,30.43,SSE,165,0.0,12.0,60,0.00,,,0.00,0.00,VWS V14.00,2013-11-07 11:01:00,
2013-11-07 04:06:00,29.8,17.6,30.43,West,263,7.0,21.0,60,0.00,,,0.00,0.00,VWS V14.00,2013-11-07 11:06:00,
2013-11-07 04:11:00,29.9,17.7,30.43,South,170,6.0,25.0,60,0.00,,,0.00,0.00,VWS V14.00,2013-11-07 11:11:00,
2013-11-07 04:15:00,29.9,17.7,30.42,West,281,2.0,28.0,60,0.00,,,0.00,0.00,VWS V14.00,2013-11-07 11:15:00,
2013-11-07 04:16:00,29.9,17.7,30.43,WSW,252,1.0,10.0,60,0.00,,,0.00,0.00,VWS V14.00,2013-11-07 11:16:00,
2013-11-07 04:21:00,30.0,17.8,30.42,WSW,250,2.0,24.0,60,0.00,,,0.00,0.00,VWS V14.00,2013-11-07 11:21:00,
2013-11-07 04:27:00,29.9,17.7,30.42,WNW,296,1.0,24.0,60,0.00,,,0.00,0.00,VWS V14.00,2013-11-07 11:27:00,
2013-11-07 04:30:00,29.9,17.7,30.41,SSW,202,0.0,24.0,60,0.00,,,0.00,0.00,VWS V14.00,2013-11-07 11:30:00,
2013-11-07 04:32:00,29.9,17.7,30.42,NW,309,2.0,8.0,60,0.00,,,0.00,0.00,VWS V14.00,2013-11-07 11:32:00,
2013-11-07 04:35:00,29.8,17.6,30.41,NW,325,4.0,11.0,60,0.00,,,0.00,0.00,VWS V14.00,2013-11-07 11:35:00,
2013-11-07 04:40:00,29.8,17.6,30.43,WSW,252,3.0,32.0,60,0.00,,,0.00,0.00,VWS V14.00,2013-11-07 11:40:00,
2013-11-07 04:45:00,30.0,17.8,30.43,NNW,342,6.0,32.0,60,0.00,,,0.00,0.00,VWS V14.00,2013-11-07 11:45:00,
2013-11-07 04:50:00,30.1,17.9,30.43,NW,323,1.0,14.0,60,0.00,,,0.00,0.00,VWS V14.00,2013-11-07 11:50:00,
2013-11-07 04:55:00,30.1,17.9,30.43,WNW,282,7.0,15.0,60,0.00,,,0.00,0.00,VWS V14.00,2013-11-07 11:55:00,
2013-11-07 05:00:00,30.1,17.9,30.42,WNW,294,6.0,15.0,60,0.00,,,0.00,0.00,VWS V14.00,2013-11-07 12:00:00,
2013-11-07 05:05:00,30.0,17.8,30.43,West,273,9.0,22.0,60,0.00,,,0.00,0.00,VWS V14.00,2013-11-07 12:05:00,
2013-11-07 05:10:00,29.9,17.7,30.43,WSW,253,0.0,22.0,60,0.00,,,0.00,0.00,VWS V14.00,2013-11-07 12:10:00,
2013-11-07 05:15:00,29.8,17.6,30.42,WSW,251,0.0,22.0,60,0.00,,,0.00,0.00,VWS V14.00,2013-11-07 12:15:00,
2013-11-07 05:16:00,29.8,17.6,30.42,West,271,0.0,2.0,60,0.00,,,0.00,0.00,VWS V14.00,2013-11-07 12:16:00,
2013-11-07 05:21:00,29.8,17.6,30.43,West,266,0.0,14.0,60,0.00,,,0.00,0.00,VWS V14.00,2013-11-07 12:21:00,
2013-11-07 05:26:00,29.7,17.5,30.43,NW,321,4.0,21.0,60,0.00,,,0.00,0.00,VWS V14.00,2013-11-07 12:26:00,
2013-11-07 05:30:00,29.7,17.9,30.44,WNW,300,0.0,21.0,61,0.00,,,0.00,0.00,VWS V14.00,2013-11-07 12:30:00,
2013-11-07 05:31:00,29.7,17.9,30.44,WNW,284,0.0,1.0,61,0.00,,,0.00,0.00,VWS V14.00,2013-11-07 12:31:00,
2013-11-07 05:36:00,29.7,17.9,30.43,West,270,2.0,12.0,61,0.00,,,0.00,0.00,VWS V14.00,2013-11-07 12:36:00,
2013-11-07 05:41:00,29.7,17.9,30.43,NW,316,1.0,14.0,61,0.00,,,0.00,0.00,VWS V14.00,2013-11-07 12:41:00,
2013-11-07 05:45:00,29.7,17.9,30.42,SW,229,2.0,14.0,61,0.00,,,0.00,0.00,VWS V14.00,2013-11-07 12:45:00,
2013-11-07 05:46:00,29.7,17.9,30.42,West,269,0.0,2.0,61,0.00,,,0.00,0.00,VWS V14.00,2013-11-07 12:46:00,
2013-11-07 05:51:00,29.6,17.8,30.43,SW,236,0.0,8.0,61,0.00,,,0.00,0.00,VWS V14.00,2013-11-07 12:51:00,
2013-11-07 05:56:00,29.6,17.8,30.42,WNW,303,0.0,8.0,61,0.00,,,0.00,0.00,VWS V14.00,2013-11-07 12:56:00,
2013-11-07 06:00:00,29.5,17.7,30.42,WNW,288,1.0,12.0,61,0.00,,,0.00,0.00,VWS V14.00,2013-11-07 13:00:00,
2013-11-07 06:01:00,29.5,17.7,30.42,West,274,0.0,4.0,61,0.00,,,0.00,0.00,VWS V14.00,2013-11-07 13:01:00,
2013-11-07 06:06:00,29.5,17.7,30.42,WNW,294,1.0,8.0,61,0.00,,,0.00,0.00,VWS V14.00,2013-11-07 13:06:00,
2013-11-07 06:11:00,29.5,17.7,30.42,West,273,0.0,8.0,61,0.00,,,0.00,0.00,VWS V14.00,2013-11-07 13:11:00,
2013-11-07 06:15:00,29.5,17.7,30.42,WNW,288,0.0,8.0,61,0.00,,,0.00,0.00,VWS V14.00,2013-11-07 13:15:00,
2013-11-07 06:16:00,29.5,17.7,30.42,WSW,257,0.0,0.0,61,0.00,,,0.00,0.00,VWS V14.00,2013-11-07 13:16:00,
2013-11-07 06:22:00,29.5,17.7,30.42,NNW,329,0.0,11.0,61,0.00,,,0.00,0.00,VWS V14.00,2013-11-07 13:22:00,
2013-11-07 06:27:00,29.5,17.3,30.42,WNW,296,2.0,11.0,60,0.00,,,0.00,0.00,VWS V14.00,2013-11-07 13:27:00,
2013-11-07 06:30:00,29.5,17.3,30.42,NW,318,2.0,11.0,60,0.00,,,0.00,0.00,VWS V14.00,2013-11-07 13:30:00,
2013-11-07 06:32:00,29.6,17.4,30.42,NW,305,0.0,9.0,60,0.00,,,0.00,0.00,VWS V14.00,2013-11-07 13:32:00,
2013-11-07 06:37:00,29.7,17.5,30.42,West,263,0.0,10.0,60,0.00,,,0.00,5.00,VWS V14.00,2013-11-07 13:37:00,
2013-11-07 06:42:00,29.9,17.3,30.42,WNW,296,1.0,10.0,59,0.00,,,0.00,7.00,VWS V14.00,2013-11-07 13:42:00,
2013-11-07 06:45:00,29.9,17.3,30.42,WNW,297,0.0,10.0,59,0.00,,,0.00,9.00,VWS V14.00,2013-11-07 13:45:00,
2013-11-07 06:47:00,29.9,17.3,30.42,WNW,297,0.0,0.0,59,0.00,,,0.00,9.00,VWS V14.00,2013-11-07 13:47:00,
2013-11-07 06:52:00,29.9,17.3,30.43,WNW,297,0.0,1.0,59,0.00,,,0.00,12.00,VWS V14.00,2013-11-07 13:52:00,
2013-11-07 06:57:00,29.8,17.2,30.42,NW,323,2.0,2.0,59,0.00,,,0.00,14.00,VWS V14.00,2013-11-07 13:57:00,
2013-11-07 07:00:00,29.8,17.6,30.43,NW,309,0.0,4.0,60,0.00,,,0.00,16.00,VWS V14.00,2013-11-07 14:00:00,
2013-11-07 07:02:00,29.8,17.6,30.43,NW,309,0.0,0.0,60,0.00,,,0.00,18.00,VWS V14.00,2013-11-07 14:02:00,
2013-11-07 07:07:00,29.7,17.5,30.43,NW,309,0.0,1.0,60,0.00,,,0.00,19.00,VWS V14.00,2013-11-07 14:07:00,
2013-11-07 07:13:00,29.8,17.6,30.43,NW,309,0.0,4.0,60,0.00,,,0.00,19.00,VWS V14.00,2013-11-07 14:13:00,
2013-11-07 07:15:00,29.9,17.7,30.43,NW,309,0.0,4.0,60,0.00,,,0.00,19.00,VWS V14.00,2013-11-07 14:15:00,
2013-11-07 07:18:00,30.0,17.4,30.43,NW,304,0.0,4.0,59,0.00,,,0.00,19.00,VWS V14.00,2013-11-07 14:18:00,
2013-11-07 07:23:00,30.3,17.7,30.43,NW,323,0.0,8.0,59,0.00,,,0.00,19.00,VWS V14.00,2013-11-07 14:23:00,
2013-11-07 07:28:00,30.7,18.1,30.44,WNW,300,2.0,8.0,59,0.00,,,0.00,19.00,VWS V14.00,2013-11-07 14:28:00,
2013-11-07 07:30:00,30.9,17.9,30.44,WNW,300,0.0,8.0,58,0.00,,,0.00,40.00,VWS V14.00,2013-11-07 14:30:00,
2013-11-07 07:33:00,31.0,18.0,30.44,NNW,332,2.0,5.0,58,0.00,,,0.00,30.00,VWS V14.00,2013-11-07 14:33:00,
2013-11-07 07:38:00,31.5,18.0,30.45,NW,321,0.0,11.0,57,0.00,,,0.00,35.00,VWS V14.00,2013-11-07 14:38:00,
2013-11-07 07:43:00,31.9,18.4,30.44,NW,306,0.0,11.0,57,0.00,,,0.00,130.00,VWS V14.00,2013-11-07 14:43:00,
2013-11-07 07:45:00,32.0,18.5,30.44,NW,309,0.0,11.0,57,0.00,,,0.00,139.00,VWS V14.00,2013-11-07 14:45:00,
2013-11-07 07:48:00,32.2,18.3,30.44,NW,321,0.0,1.0,56,0.00,,,0.00,149.00,VWS V14.00,2013-11-07 14:48:00,
2013-11-07 07:53:00,32.6,18.7,30.44,NW,310,0.0,8.0,56,0.00,,,0.00,169.00,VWS V14.00,2013-11-07 14:53:00,
2013-11-07 07:59:00,33.0,18.6,30.44,WNW,301,0.0,11.0,55,0.00,,,0.00,190.00,VWS V14.00,2013-11-07 14:59:00,
2013-11-07 08:00:00,33.3,18.5,30.43,WNW,294,0.0,11.0,54,0.00,,,0.00,197.00,VWS V14.00,2013-11-07 15:00:00,
2013-11-07 08:04:00,33.6,18.7,30.43,West,280,0.0,8.0,54,0.00,,,0.00,211.00,VWS V14.00,2013-11-07 15:04:00,
2013-11-07 08:09:00,34.1,18.8,30.43,West,273,0.0,8.0,53,0.00,,,0.00,232.00,VWS V14.00,2013-11-07 15:09:00,
2013-11-07 08:14:00,34.6,18.8,30.43,WNW,296,0.0,9.0,52,0.00,,,0.00,253.00,VWS V14.00,2013-11-07 15:14:00,
2013-11-07 08:15:00,34.8,19.0,30.43,WNW,292,1.0,11.0,52,0.00,,,0.00,260.00,VWS V14.00,2013-11-07 15:15:00,
2013-11-07 08:19:00,35.1,18.8,30.43,WNW,299,0.0,7.0,51,0.00,,,0.00,274.00,VWS V14.00,2013-11-07 15:19:00,
2013-11-07 08:24:00,35.5,19.2,30.43,WNW,284,0.0,9.0,51,0.00,,,0.00,292.00,VWS V14.00,2013-11-07 15:24:00,
2013-11-07 08:29:00,35.9,19.1,30.43,WNW,296,6.0,9.0,50,0.00,,,0.00,309.00,VWS V14.00,2013-11-07 15:29:00,
2013-11-07 08:30:00,36.0,19.2,30.43,West,269,1.0,9.0,50,0.00,,,0.00,311.00,VWS V14.00,2013-11-07 15:30:00,
2013-11-07 08:34:00,36.3,19.0,30.43,West,275,7.0,8.0,49,0.00,,,0.00,322.00,VWS V14.00,2013-11-07 15:34:00,
2013-11-07 08:39:00,36.7,19.4,30.42,NW,311,2.0,8.0,49,0.00,,,0.00,338.00,VWS V14.00,2013-11-07 15:39:00,
2013-11-07 08:45:00,37.0,19.1,30.42,WNW,293,0.0,11.0,48,0.00,,,0.00,352.00,VWS V14.00,2013-11-07 15:45:00,
2013-11-07 08:50:00,37.5,19.6,30.43,NW,323,2.0,11.0,48,0.00,,,0.00,364.00,VWS V14.00,2013-11-07 15:50:00,
2013-11-07 08:55:00,38.0,19.6,30.42,NNW,339,0.0,11.0,47,0.00,,,0.00,376.00,VWS V14.00,2013-11-07 15:55:00,
2013-11-07 09:00:00,38.5,19.5,30.42,WNW,285,5.0,11.0,46,0.00,,,0.00,390.00,VWS V14.00,2013-11-07 16:00:00,
2013-11-07 09:05:00,38.9,19.4,30.42,NNW,335,5.0,9.0,45,0.00,,,0.00,406.00,VWS V14.00,2013-11-07 16:05:00,
2013-11-07 09:10:00,39.3,19.8,30.42,WNW,289,1.0,9.0,45,0.00,,,0.00,418.00,VWS V14.00,2013-11-07 16:10:00,
2013-11-07 09:15:00,39.6,19.5,30.42,NW,317,1.0,9.0,44,0.00,,,0.00,429.00,VWS V14.00,2013-11-07 16:15:00,
2013-11-07 09:20:00,39.8,19.7,30.42,NW,318,0.0,11.0,44,0.00,,,0.00,443.00,VWS V14.00,2013-11-07 16:20:00,
2013-11-07 09:25:00,39.8,19.7,30.42,NW,307,0.0,12.0,44,0.00,,,0.00,455.00,VWS V14.00,2013-11-07 16:25:00,
2013-11-07 09:30:00,40.0,19.3,30.42,NW,309,2.0,13.0,43,0.00,,,0.00,466.00,VWS V14.00,2013-11-07 16:30:00,
2013-11-07 09:35:00,40.3,19.6,30.41,NW,308,4.0,12.0,43,0.00,,,0.00,448.00,VWS V14.00,2013-11-07 16:35:00,
2013-11-07 09:41:00,40.3,19.6,30.40,NNW,345,0.0,15.0,43,0.00,,,0.00,489.00,VWS V14.00,2013-11-07 16:41:00,
2013-11-07 09:45:00,40.5,19.8,30.40,North,5,1.0,15.0,43,0.00,,,0.00,499.00,VWS V14.00,2013-11-07 16:45:00,
2013-11-07 09:46:00,40.5,19.8,30.40,North,355,7.0,12.0,43,0.00,,,0.00,503.00,VWS V14.00,2013-11-07 16:46:00,
2013-11-07 09:51:00,40.5,19.8,30.40,North,351,9.0,13.0,43,0.00,,,0.00,513.00,VWS V14.00,2013-11-07 16:51:00,
2013-11-07 09:56:00,40.7,19.4,30.41,NNW,340,4.0,13.0,42,0.00,,,0.00,526.00,VWS V14.00,2013-11-07 16:56:00,
2013-11-07 10:00:00,40.9,19.6,30.40,North,350,0.0,13.0,42,0.00,,,0.00,529.00,VWS V14.00,2013-11-07 17:00:00,
2013-11-07 10:01:00,40.9,19.6,30.40,NW,324,0.0,5.0,42,0.00,,,0.00,529.00,VWS V14.00,2013-11-07 17:01:00,
2013-11-07 10:06:00,41.0,19.7,30.40,NW,323,6.0,14.0,42,0.00,,,0.00,548.00,VWS V14.00,2013-11-07 17:06:00,
2013-11-07 10:11:00,41.1,19.8,30.39,NNE,17,0.0,14.0,42,0.00,,,0.00,561.00,VWS V14.00,2013-11-07 17:11:00,
2013-11-07 10:15:00,41.4,19.5,30.39,NW,313,2.0,14.0,41,0.00,,,0.00,545.00,VWS V14.00,2013-11-07 17:15:00,
2013-11-07 10:16:00,41.5,19.6,30.39,NNW,346,4.0,10.0,41,0.00,,,0.00,543.00,VWS V14.00,2013-11-07 17:16:00,
2013-11-07 10:21:00,41.7,19.2,30.39,NNW,332,0.0,13.0,40,0.00,,,0.00,543.00,VWS V14.00,2013-11-07 17:21:00,
2013-11-07 10:27:00,42.0,19.5,30.39,NNE,24,0.0,13.0,40,0.00,,,0.00,554.00,VWS V14.00,2013-11-07 17:27:00,
2013-11-07 10:30:00,42.2,19.6,30.39,NW,315,1.0,13.0,40,0.00,,,0.00,573.00,VWS V14.00,2013-11-07 17:30:00,
2013-11-07 10:32:00,42.3,19.7,30.39,NNE,26,3.0,8.0,40,0.00,,,0.00,561.00,VWS V14.00,2013-11-07 17:32:00,
2013-11-07 10:37:00,42.5,19.3,30.40,WNW,285,6.0,15.0,39,0.00,,,0.00,561.00,VWS V14.00,2013-11-07 17:37:00,
2013-11-07 10:42:00,42.6,18.8,30.39,West,279,6.0,20.0,38,0.00,,,0.00,526.00,VWS V14.00,2013-11-07 17:42:00,
2013-11-07 10:45:00,42.6,19.4,30.39,West,275,6.0,20.0,39,0.00,,,0.00,570.00,VWS V14.00,2013-11-07 17:45:00,
2013-11-07 10:48:00,42.6,19.4,30.38,WNW,296,2.0,15.0,39,0.00,,,0.00,584.00,VWS V14.00,2013-11-07 17:48:00,
2013-11-07 10:53:00,42.8,19.6,30.38,NNW,331,2.0,16.0,39,0.00,,,0.00,605.00,VWS V14.00,2013-11-07 17:53:00,
2013-11-07 10:58:00,43.2,19.3,30.38,WNW,300,4.0,16.0,38,0.00,,,0.00,613.00,VWS V14.00,2013-11-07 17:58:00,
2013-11-07 11:00:00,43.3,19.4,30.38,WNW,293,9.0,16.0,38,0.00,,,0.00,617.00,VWS V14.00,2013-11-07 18:00:00,
2013-11-07 11:01:00,43.4,19.5,30.38,WNW,294,5.0,12.0,38,0.00,,,0.00,617.00,VWS V14.00,2013-11-07 18:01:00,
2013-11-07 11:06:00,43.7,19.8,30.39,WNW,287,2.0,14.0,38,0.00,,,0.00,617.00,VWS V14.00,2013-11-07 18:06:00,
2013-11-07 11:12:00,44.0,19.4,30.37,NNW,330,5.0,14.0,37,0.00,,,0.00,631.00,VWS V14.00,2013-11-07 18:12:00,
2013-11-07 11:15:00,44.2,19.6,30.37,WNW,292,0.0,14.0,37,0.00,,,0.00,628.00,VWS V14.00,2013-11-07 18:15:00,
2013-11-07 11:17:00,44.3,19.7,30.37,WNW,292,0.0,1.0,37,0.00,,,0.00,629.00,VWS V14.00,2013-11-07 18:17:00,
2013-11-07 11:22:00,45.0,19.0,30.37,WNW,290,0.0,8.0,35,0.00,,,0.00,636.00,VWS V14.00,2013-11-07 18:22:00,
2013-11-07 11:27:00,45.6,18.9,30.36,NNW,338,4.0,11.0,34,0.00,,,0.00,635.00,VWS V14.00,2013-11-07 18:27:00,
2013-11-07 11:30:00,45.8,19.0,30.36,NW,315,7.0,11.0,34,0.00,,,0.00,638.00,VWS V14.00,2013-11-07 18:30:00,
2013-11-07 11:32:00,45.8,19.0,30.35,NW,316,2.0,12.0,34,0.00,,,0.00,636.00,VWS V14.00,2013-11-07 18:32:00,
2013-11-07 11:37:00,46.3,19.5,30.35,NW,309,2.0,12.0,34,0.00,,,0.00,636.00,VWS V14.00,2013-11-07 18:37:00,
2013-11-07 11:42:00,46.8,19.2,30.35,NNW,347,2.0,12.0,33,0.00,,,0.00,640.00,VWS V14.00,2013-11-07 18:42:00,
2013-11-07 11:45:00,47.0,18.7,30.35,NW,322,7.0,13.0,32,0.00,,,0.00,638.00,VWS V14.00,2013-11-07 18:45:00,
2013-11-07 11:48:00,47.2,18.9,30.35,NW,317,2.0,13.0,32,0.00,,,0.00,640.00,VWS V14.00,2013-11-07 18:48:00,
2013-11-07 11:53:00,47.3,19.0,30.34,WNW,289,4.0,13.0,32,0.00,,,0.00,640.00,VWS V14.00,2013-11-07 18:53:00,
2013-11-07 11:58:00,47.5,19.1,30.33,WNW,292,2.0,14.0,32,0.00,,,0.00,640.00,VWS V14.00,2013-11-07 18:58:00,
2013-11-07 12:00:00,47.5,19.1,30.34,NNW,331,0.0,14.0,32,0.00,,,0.00,640.00,VWS V14.00,2013-11-07 19:00:00,
2013-11-07 12:03:00,47.5,19.1,30.33,NNW,333,6.0,12.0,32,0.00,,,0.00,638.00,VWS V14.00,2013-11-07 19:03:00,
2013-11-07 12:08:00,47.4,19.8,30.33,WNW,301,2.0,12.0,33,0.00,,,0.00,631.00,VWS V14.00,2013-11-07 19:08:00,
2013-11-07 12:13:00,47.4,19.0,30.33,West,278,13.0,13.0,32,0.00,,,0.00,638.00,VWS V14.00,2013-11-07 19:13:00,
2013-11-07 12:15:00,47.4,19.0,30.33,NNW,328,2.0,14.0,32,0.00,,,0.00,638.00,VWS V14.00,2013-11-07 19:15:00,
2013-11-07 12:18:00,47.4,19.0,30.32,WNW,287,4.0,8.0,32,0.00,,,0.00,640.00,VWS V14.00,2013-11-07 19:18:00,
2013-11-07 12:23:00,47.6,19.2,30.32,West,270,0.0,8.0,32,0.00,,,0.00,638.00,VWS V14.00,2013-11-07 19:23:00,
2013-11-07 12:29:00,47.5,19.1,30.31,NW,317,8.0,18.0,32,0.00,,,0.00,631.00,VWS V14.00,2013-11-07 19:29:00,
2013-11-07 12:30:00,47.4,19.0,30.31,NW,310,4.0,18.0,32,0.00,,,0.00,629.00,VWS V14.00,2013-11-07 19:30:00,
2013-11-07 12:34:00,47.3,19.0,30.31,NW,306,6.0,9.0,32,0.00,,,0.00,628.00,VWS V14.00,2013-11-07 19:34:00,
2013-11-07 12:39:00,47.2,19.6,30.31,NW,309,4.0,9.0,33,0.00,,,0.00,617.00,VWS V14.00,2013-11-07 19:39:00,
2013-11-07 12:44:00,47.4,19.0,30.31,WNW,292,14.0,14.0,32,0.00,,,0.00,613.00,VWS V14.00,2013-11-07 19:44:00,
2013-11-07 12:45:00,47.4,18.3,30.31,NW,316,4.0,14.0,31,0.00,,,0.00,612.00,VWS V14.00,2013-11-07 19:45:00,
2013-11-07 12:49:00,47.6,18.5,30.31,NW,314,0.0,11.0,31,0.00,,,0.00,610.00,VWS V14.00,2013-11-07 19:49:00,
2013-11-07 12:54:00,47.8,18.6,30.30,NNW,327,1.0,11.0,31,0.00,,,0.00,612.00,VWS V14.00,2013-11-07 19:54:00,
2013-11-07 12:59:00,48.1,18.1,30.30,North,360,3.0,12.0,30,0.00,,,0.00,608.00,VWS V14.00,2013-11-07 19:59:00,
2013-11-07 13:00:00,48.1,18.1,30.30,WNW,302,7.0,12.0,30,0.00,,,0.00,608.00,VWS V14.00,2013-11-07 20:00:00,
2013-11-07 13:04:00,48.2,18.2,30.29,WNW,290,4.0,8.0,30,0.00,,,0.00,603.00,VWS V14.00,2013-11-07 20:04:00,
2013-11-07 13:09:00,48.4,17.6,30.30,NNW,328,9.0,9.0,29,0.00,,,0.00,601.00,VWS V14.00,2013-11-07 20:09:00,
2013-11-07 13:14:00,48.7,17.9,30.29,NW,311,0.0,9.0,29,0.00,,,0.00,599.00,VWS V14.00,2013-11-07 20:14:00,
2013-11-07 13:15:00,48.7,17.9,30.30,NW,310,0.0,9.0,29,0.00,,,0.00,598.00,VWS V14.00,2013-11-07 20:15:00,
2013-11-07 13:19:00,48.8,18.0,30.30,NNW,336,1.0,13.0,29,0.00,,,0.00,587.00,VWS V14.00,2013-11-07 20:19:00,
2013-11-07 13:25:00,48.5,17.7,30.29,NNW,330,1.0,13.0,29,0.00,,,0.00,577.00,VWS V14.00,2013-11-07 20:25:00,
2013-11-07 13:30:00,48.3,17.5,30.29,North,360,4.0,6.0,29,0.00,,,0.00,578.00,VWS V14.00,2013-11-07 20:30:00,
2013-11-07 13:37:00,47.8,17.1,30.28,WNW,296,1.0,6.0,29,0.00,,,0.00,490.00,VWS V14.00,2013-11-07 20:37:00,
2013-11-07 13:42:00,47.6,17.7,30.28,NNW,347,5.0,9.0,30,0.00,,,0.00,578.00,VWS V14.00,2013-11-07 20:42:00,
2013-11-07 13:45:00,47.4,17.5,30.28,NNW,342,0.0,9.0,30,0.00,,,0.00,84.00,VWS V14.00,2013-11-07 20:45:00,
2013-11-07 13:49:00,47.1,17.3,30.28,NW,324,2.0,4.0,30,0.00,,,0.00,100.00,VWS V14.00,2013-11-07 20:49:00,
2013-11-07 13:54:00,46.8,17.8,30.27,NNW,327,1.0,4.0,31,0.00,,,0.00,478.00,VWS V14.00,2013-11-07 20:54:00,
2013-11-07 13:59:00,46.6,17.6,30.27,NNW,341,1.0,6.0,31,0.00,,,0.00,141.00,VWS V14.00,2013-11-07 20:59:00,
2013-11-07 14:00:00,46.6,17.6,30.27,NNW,339,0.0,6.0,31,0.00,,,0.00,209.00,VWS V14.00,2013-11-07 21:00:00,
2013-11-07 14:04:00,46.5,17.5,30.27,NNW,341,0.0,4.0,31,0.00,,,0.00,65.00,VWS V14.00,2013-11-07 21:04:00,
2013-11-07 14:09:00,46.3,17.3,30.26,NNW,342,2.0,8.0,31,0.00,,,0.00,77.00,VWS V14.00,2013-11-07 21:09:00,
2013-11-07 14:14:00,46.3,17.3,30.26,NW,317,4.0,8.0,31,0.00,,,0.00,70.00,VWS V14.00,2013-11-07 21:14:00,
2013-11-07 14:15:00,46.3,18.1,30.26,NW,317,0.0,8.0,32,0.00,,,0.00,77.00,VWS V14.00,2013-11-07 21:15:00,
2013-11-07 14:21:00,46.1,17.9,30.26,North,5,0.0,5.0,32,0.00,,,0.00,65.00,VWS V14.00,2013-11-07 21:21:00,
2013-11-07 14:29:00,46.0,17.8,30.25,NW,313,2.0,6.0,32,0.00,,,0.00,107.00,VWS V14.00,2013-11-07 21:29:00,
2013-11-07 14:30:00,46.0,17.8,30.25,NW,321,4.0,6.0,32,0.00,,,0.00,88.00,VWS V14.00,2013-11-07 21:30:00,
2013-11-07 14:34:00,46.2,18.0,30.25,North,350,6.0,7.0,32,0.00,,,0.00,218.00,VWS V14.00,2013-11-07 21:34:00,
2013-11-07 14:39:00,46.5,18.2,30.25,NW,323,0.0,10.0,32,0.00,,,0.00,237.00,VWS V14.00,2013-11-07 21:39:00,
2013-11-07 14:45:00,46.8,18.5,30.24,NW,305,8.0,10.0,32,0.00,,,0.00,90.00,VWS V14.00,2013-11-07 21:45:00,
2013-11-07 14:47:00,46.8,18.5,30.24,NNW,348,6.0,8.0,32,0.00,,,0.00,98.00,VWS V14.00,2013-11-07 21:47:00,
2013-11-07 14:52:00,46.8,18.5,30.25,NW,313,0.0,10.0,32,0.00,,,0.00,97.00,VWS V14.00,2013-11-07 21:52:00,
2013-11-07 14:57:00,46.8,19.2,30.25,NNW,335,1.0,10.0,33,0.00,,,0.00,74.00,VWS V14.00,2013-11-07 21:57:00,
2013-11-07 15:00:00,46.7,19.1,30.24,NW,311,7.0,10.0,33,0.00,,,0.00,69.00,VWS V14.00,2013-11-07 22:00:00,
2013-11-07 15:02:00,46.7,19.1,30.24,NNW,327,0.0,8.0,33,0.00,,,0.00,62.00,VWS V14.00,2013-11-07 22:02:00,
2013-11-07 15:08:00,46.4,19.6,30.23,NNW,337,0.0,8.0,34,0.00,,,0.00,54.00,VWS V14.00,2013-11-07 22:08:00,
2013-11-07 15:13:00,46.2,19.4,30.23,NW,314,6.0,8.0,34,0.00,,,0.00,51.00,VWS V14.00,2013-11-07 22:13:00,
2013-11-07 15:15:00,46.1,19.3,30.23,NW,312,0.0,8.0,34,0.00,,,0.00,53.00,VWS V14.00,2013-11-07 22:15:00,
2013-11-07 15:18:00,46.0,19.2,30.22,NW,325,0.0,8.0,34,0.00,,,0.00,49.00,VWS V14.00,2013-11-07 22:18:00,
2013-11-07 15:23:00,45.9,19.8,30.22,NNW,338,0.0,8.0,35,0.00,,,0.00,49.00,VWS V14.00,2013-11-07 22:23:00,
2013-11-07 15:29:00,45.7,19.6,30.22,NNW,343,0.0,8.0,35,0.00,,,0.00,49.00,VWS V14.00,2013-11-07 22:29:00,
2013-11-07 15:30:00,45.8,19.7,30.22,NW,323,2.0,8.0,35,0.00,,,0.00,49.00,VWS V14.00,2013-11-07 22:30:00,
2013-11-07 15:34:00,45.7,19.6,30.21,NW,321,0.0,5.0,35,0.00,,,0.00,53.00,VWS V14.00,2013-11-07 22:34:00,
2013-11-07 15:39:00,45.5,20.1,30.21,North,360,1.0,7.0,36,0.00,,,0.00,46.00,VWS V14.00,2013-11-07 22:39:00,
2013-11-07 15:44:00,45.3,19.9,30.21,WNW,284,0.0,7.0,36,0.00,,,0.00,42.00,VWS V14.00,2013-11-07 22:44:00,
2013-11-07 15:45:00,45.3,19.9,30.21,WNW,283,0.0,7.0,36,0.00,,,0.00,40.00,VWS V14.00,2013-11-07 22:45:00,
2013-11-07 15:49:00,45.2,20.5,30.21,WNW,283,0.0,1.0,37,0.00,,,0.00,42.00,VWS V14.00,2013-11-07 22:49:00,
2013-11-07 15:54:00,45.2,19.9,30.20,West,275,0.0,4.0,36,0.00,,,0.00,37.00,VWS V14.00,2013-11-07 22:54:00,
2013-11-07 15:59:00,45.1,20.4,30.20,West,275,0.0,4.0,37,0.00,,,0.00,35.00,VWS V14.00,2013-11-07 22:59:00,
2013-11-07 16:00:00,45.1,20.4,30.20,West,275,0.0,4.0,37,0.00,,,0.00,35.00,VWS V14.00,2013-11-07 23:00:00,
2013-11-07 16:04:00,45.0,20.3,30.20,West,275,0.0,1.0,37,0.00,,,0.00,40.00,VWS V14.00,2013-11-07 23:04:00,
2013-11-07 16:09:00,44.9,20.2,30.20,West,275,0.0,1.0,37,0.00,,,0.00,37.00,VWS V14.00,2013-11-07 23:09:00,
2013-11-07 16:15:00,44.7,20.0,30.19,West,273,0.0,2.0,37,0.00,,,0.00,35.00,VWS V14.00,2013-11-07 23:15:00,
2013-11-07 16:20:00,44.5,20.5,30.19,West,275,0.0,1.0,38,0.00,,,0.00,32.00,VWS V14.00,2013-11-07 23:20:00,
2013-11-07 16:25:00,44.3,19.7,30.19,South,171,0.0,6.0,37,0.00,,,0.00,23.00,VWS V14.00,2013-11-07 23:25:00,
2013-11-07 16:30:00,44.2,20.2,30.19,SE,140,0.0,6.0,38,0.00,,,0.00,12.00,VWS V14.00,2013-11-07 23:30:00,
2013-11-07 16:35:00,44.1,20.1,30.19,SE,140,0.0,0.0,38,0.00,,,0.00,7.00,VWS V14.00,2013-11-07 23:35:00,
2013-11-07 16:40:00,43.9,20.6,30.19,SE,140,0.0,0.0,39,0.00,,,0.00,5.00,VWS V14.00,2013-11-07 23:40:00,
2013-11-07 16:45:00,43.7,20.4,30.19,SE,140,0.0,0.0,39,0.00,,,0.00,0.00,VWS V14.00,2013-11-07 23:45:00,
2013-11-07 16:50:00,43.4,20.7,30.19,SE,140,0.0,0.0,40,0.00,,,0.00,0.00,VWS V14.00,2013-11-07 23:50:00,
2013-11-07 16:55:00,42.9,20.8,30.19,SE,140,0.0,0.0,41,0.00,,,0.00,0.00,VWS V14.00,2013-11-07 23:55:00,
2013-11-07 17:00:00,42.3,19.7,30.18,South,186,0.0,2.0,40,0.00,,,0.00,0.00,VWS V14.00,2013-11-08 00:00:00,
2013-11-07 17:05:00,41.8,20.4,30.18,South,186,0.0,1.0,42,0.00,,,0.00,0.00,VWS V14.00,2013-11-08 00:05:00,
2013-11-07 17:11:00,41.3,20.0,30.18,South,186,0.0,1.0,42,0.00,,,0.00,0.00,VWS V14.00,2013-11-08 00:11:00,
2013-11-07 17:15:00,40.9,20.1,30.18,South,186,0.0,1.0,43,0.00,,,0.00,0.00,VWS V14.00,2013-11-08 00:15:00,
2013-11-07 17:16:00,40.8,20.0,30.18,South,186,0.0,0.0,43,0.00,,,0.00,0.00,VWS V14.00,2013-11-08 00:16:00,
2013-11-07 17:21:00,40.4,20.8,30.17,South,186,0.0,1.0,45,0.00,,,0.00,0.00,VWS V14.00,2013-11-08 00:21:00,
2013-11-07 17:26:00,39.9,20.3,30.17,South,186,0.0,1.0,45,0.00,,,0.00,0.00,VWS V14.00,2013-11-08 00:26:00,
2013-11-07 17:30:00,39.5,19.9,30.17,South,186,0.0,1.0,45,0.00,,,0.00,0.00,VWS V14.00,2013-11-08 00:30:00,
2013-11-07 17:31:00,39.5,19.9,30.17,South,186,0.0,0.0,45,0.00,,,0.00,0.00,VWS V14.00,2013-11-08 00:31:00,
2013-11-07 17:36:00,39.0,20.0,30.17,South,186,0.0,0.0,46,0.00,,,0.00,0.00,VWS V14.00,2013-11-08 00:36:00,
2013-11-07 17:41:00,38.6,20.1,30.17,South,186,0.0,0.0,47,0.00,,,0.00,0.00,VWS V14.00,2013-11-08 00:41:00,
2013-11-07 17:45:00,38.3,19.9,30.17,South,186,0.0,0.0,47,0.00,,,0.00,0.00,VWS V14.00,2013-11-08 00:45:00,
2013-11-07 17:46:00,38.2,19.8,30.17,South,186,0.0,0.0,47,0.00,,,0.00,0.00,VWS V14.00,2013-11-08 00:46:00,
2013-11-07 17:51:00,37.9,20.0,30.17,South,186,0.0,0.0,48,0.00,,,0.00,0.00,VWS V14.00,2013-11-08 00:51:00,
2013-11-07 17:56:00,37.6,19.7,30.17,South,186,0.0,1.0,48,0.00,,,0.00,0.00,VWS V14.00,2013-11-08 00:56:00,
2013-11-07 18:00:00,37.3,19.4,30.17,South,186,0.0,1.0,48,0.00,,,0.00,0.00,VWS V14.00,2013-11-08 01:00:00,
2013-11-07 18:01:00,37.3,19.9,30.17,South,186,0.0,0.0,49,0.00,,,0.00,0.00,VWS V14.00,2013-11-08 01:01:00,
2013-11-07 18:06:00,37.1,19.7,30.17,South,186,0.0,0.0,49,0.00,,,0.00,0.00,VWS V14.00,2013-11-08 01:06:00,
2013-11-07 18:11:00,36.9,19.5,30.16,South,186,0.0,0.0,49,0.00,,,0.00,0.00,VWS V14.00,2013-11-08 01:11:00,
2013-11-07 18:15:00,36.8,19.9,30.16,South,186,0.0,0.0,50,0.00,,,0.00,0.00,VWS V14.00,2013-11-08 01:15:00,
2013-11-07 18:16:00,36.8,20.4,30.16,SSW,205,1.0,3.0,51,0.00,,,0.00,0.00,VWS V14.00,2013-11-08 01:16:00,
2013-11-07 18:21:00,36.7,19.4,30.16,SSW,209,0.0,3.0,49,0.00,,,0.00,0.00,VWS V14.00,2013-11-08 01:21:00,
2013-11-07 18:27:00,36.7,19.4,30.15,SSW,210,0.0,3.0,49,0.00,,,0.00,0.00,VWS V14.00,2013-11-08 01:27:00,
2013-11-07 18:30:00,36.6,19.3,30.15,WNW,292,0.0,6.0,49,0.00,,,0.00,0.00,VWS V14.00,2013-11-08 01:30:00,
2013-11-07 18:32:00,36.6,18.3,30.15,WNW,291,1.0,1.0,47,0.00,,,0.00,0.00,VWS V14.00,2013-11-08 01:32:00,
2013-11-07 18:37:00,36.8,19.0,30.14,WNW,291,0.0,1.0,48,0.00,,,0.00,0.00,VWS V14.00,2013-11-08 01:37:00,
2013-11-07 18:42:00,36.8,19.0,30.14,WNW,291,0.0,1.0,48,0.00,,,0.00,0.00,VWS V14.00,2013-11-08 01:42:00,
2013-11-07 18:45:00,36.7,19.4,30.14,WNW,291,0.0,1.0,49,0.00,,,0.00,0.00,VWS V14.00,2013-11-08 01:45:00,
2013-11-07 18:47:00,36.6,18.8,30.14,WNW,295,1.0,4.0,48,0.00,,,0.00,0.00,VWS V14.00,2013-11-08 01:47:00,
2013-11-07 18:52:00,36.4,18.6,30.14,NW,306,0.0,4.0,48,0.00,,,0.00,0.00,VWS V14.00,2013-11-08 01:52:00,
2013-11-07 18:57:00,36.1,18.8,30.13,WNW,299,0.0,4.0,49,0.00,,,0.00,0.00,VWS V14.00,2013-11-08 01:57:00,
2013-11-07 19:00:00,36.0,18.2,30.13,West,279,0.0,4.0,48,0.00,,,0.00,0.00,VWS V14.00,2013-11-08 02:00:00,
2013-11-07 19:02:00,36.0,18.2,30.13,WNW,290,0.0,6.0,48,0.00,,,0.00,0.00,VWS V14.00,2013-11-08 02:02:00,
2013-11-07 19:07:00,36.2,18.9,30.12,WNW,290,0.0,6.0,49,0.00,,,0.00,0.00,VWS V14.00,2013-11-08 02:07:00,
2013-11-07 19:12:00,36.3,19.0,30.12,WNW,290,0.0,6.0,49,0.00,,,0.00,0.00,VWS V14.00,2013-11-08 02:12:00,
2013-11-07 19:15:00,36.1,18.8,30.12,WNW,290,0.0,6.0,49,0.00,,,0.00,0.00,VWS V14.00,2013-11-08 02:15:00,
2013-11-07 19:17:00,36.1,18.3,30.12,WNW,290,0.0,2.0,48,0.00,,,0.00,0.00,VWS V14.00,2013-11-08 02:17:00,
2013-11-07 19:23:00,35.8,18.5,30.11,WNW,290,0.0,2.0,49,0.00,,,0.00,0.00,VWS V14.00,2013-11-08 02:23:00,
2013-11-07 19:28:00,35.6,18.3,30.11,WNW,290,0.0,2.0,49,0.00,,,0.00,0.00,VWS V14.00,2013-11-08 02:28:00,
2013-11-07 19:30:00,35.5,18.2,30.11,WNW,290,0.0,2.0,49,0.00,,,0.00,0.00,VWS V14.00,2013-11-08 02:30:00,
2013-11-07 19:33:00,35.4,18.6,30.11,WNW,290,0.0,0.0,50,0.00,,,0.00,0.00,VWS V14.00,2013-11-08 02:33:00,
2013-11-07 19:38:00,35.2,18.4,30.10,WNW,290,0.0,0.0,50,0.00,,,0.00,0.00,VWS V14.00,2013-11-08 02:38:00,
2013-11-07 19:43:00,34.9,18.2,30.10,WNW,290,0.0,0.0,50,0.00,,,0.00,0.00,VWS V14.00,2013-11-08 02:43:00,
2013-11-07 19:45:00,34.8,18.1,30.10,WNW,290,0.0,0.0,50,0.00,,,0.00,0.00,VWS V14.00,2013-11-08 02:45:00,
2013-11-07 19:48:00,34.7,18.0,30.10,WNW,290,0.0,0.0,50,0.00,,,0.00,0.00,VWS V14.00,2013-11-08 02:48:00,
2013-11-07 19:53:00,34.5,18.2,30.09,WNW,290,0.0,0.0,51,0.00,,,0.00,0.00,VWS V14.00,2013-11-08 02:53:00,
2013-11-07 19:58:00,34.3,17.6,30.09,WNW,290,0.0,0.0,50,0.00,,,0.00,0.00,VWS V14.00,2013-11-08 02:58:00,
2013-11-07 20:00:00,34.2,17.5,30.08,NNW,347,0.0,2.0,50,0.00,,,0.00,0.00,VWS V14.00,2013-11-08 03:00:00,
2013-11-07 20:04:00,34.2,18.0,30.09,North,350,0.0,0.0,51,0.00,,,0.00,0.00,VWS V14.00,2013-11-08 03:04:00,
2013-11-07 20:09:00,34.1,17.9,30.08,North,350,0.0,0.0,51,0.00,,,0.00,0.00,VWS V14.00,2013-11-08 03:09:00,
2013-11-07 20:14:00,34.1,17.9,30.08,NW,319,0.0,2.0,51,0.00,,,0.00,0.00,VWS V14.00,2013-11-08 03:14:00,
2013-11-07 20:15:00,34.1,18.3,30.08,NW,319,0.0,2.0,52,0.00,,,0.00,0.00,VWS V14.00,2013-11-08 03:15:00,
2013-11-07 20:19:00,34.0,17.8,30.08,NW,319,0.0,0.0,51,0.00,,,0.00,0.00,VWS V14.00,2013-11-08 03:19:00,
2013-11-07 20:24:00,33.9,18.1,30.08,NW,319,0.0,1.0,52,0.00,,,0.00,0.00,VWS V14.00,2013-11-08 03:24:00,
2013-11-07 20:29:00,33.9,18.1,30.07,NW,315,1.0,1.0,52,0.00,,,0.00,0.00,VWS V14.00,2013-11-08 03:29:00,
2013-11-07 20:30:00,33.9,18.1,30.07,West,273,0.0,2.0,52,0.00,,,0.00,0.00,VWS V14.00,2013-11-08 03:30:00,
2013-11-07 20:34:00,34.0,18.2,30.07,West,273,0.0,0.0,52,0.00,,,0.00,0.00,VWS V14.00,2013-11-08 03:34:00,
2013-11-07 20:39:00,34.2,18.4,30.07,West,273,0.0,1.0,52,0.00,,,0.00,0.00,VWS V14.00,2013-11-08 03:39:00,
2013-11-07 20:45:00,34.4,18.2,30.07,West,266,0.0,1.0,51,0.00,,,0.00,0.00,VWS V14.00,2013-11-08 03:45:00,
2013-11-07 20:50:00,34.6,17.9,30.07,West,266,0.0,1.0,50,0.00,,,0.00,0.00,VWS V14.00,2013-11-08 03:50:00,
2013-11-07 20:55:00,34.8,17.6,30.06,West,262,0.0,2.0,49,0.00,,,0.00,0.00,VWS V14.00,2013-11-08 03:55:00,
2013-11-07 21:00:00,35.0,18.2,30.06,West,262,0.0,2.0,50,0.00,,,0.00,0.00,VWS V14.00,2013-11-08 04:00:00,
2013-11-07 21:05:00,35.2,18.0,30.06,WNW,282,0.0,4.0,49,0.00,,,0.00,0.00,VWS V14.00,2013-11-08 04:05:00,
2013-11-07 21:10:00,35.4,18.1,30.06,WNW,292,0.0,4.0,49,0.00,,,0.00,0.00,VWS V14.00,2013-11-08 04:10:00,
2013-11-07 21:15:00,35.8,18.0,30.06,WNW,303,0.0,4.0,48,0.00,,,0.00,0.00,VWS V14.00,2013-11-08 04:15:00,
2013-11-07 21:20:00,36.0,19.2,30.06,WNW,303,0.0,1.0,50,0.00,,,0.00,0.00,VWS V14.00,2013-11-08 04:20:00,
2013-11-07 21:25:00,35.9,19.1,30.05,WNW,301,1.0,2.0,50,0.00,,,0.00,0.00,VWS V14.00,2013-11-08 04:25:00,
2013-11-07 21:30:00,35.6,18.3,30.05,WNW,298,0.0,2.0,49,0.00,,,0.00,0.00,VWS V14.00,2013-11-08 04:30:00,
2013-11-07 21:35:00,35.4,18.6,30.05,WNW,298,0.0,1.0,50,0.00,,,0.00,0.00,VWS V14.00,2013-11-08 04:35:00,
2013-11-07 21:41:00,34.9,18.2,30.05,WNW,298,0.0,1.0,50,0.00,,,0.00,0.00,VWS V14.00,2013-11-08 04:41:00,
2013-11-07 21:45:00,34.8,18.1,30.04,NW,318,0.0,11.0,50,0.00,,,0.00,0.00,VWS V14.00,2013-11-08 04:45:00,
2013-11-07 21:46:00,34.8,18.1,30.04,NW,318,0.0,0.0,50,0.00,,,0.00,0.00,VWS V14.00,2013-11-08 04:46:00,
2013-11-07 21:51:00,35.1,17.9,30.04,NW,318,0.0,1.0,49,0.00,,,0.00,0.00,VWS V14.00,2013-11-08 04:51:00,
2013-11-07 21:56:00,35.4,18.6,30.04,NW,324,0.0,4.0,50,0.00,,,0.00,0.00,VWS V14.00,2013-11-08 04:56:00,
2013-11-07 22:00:00,35.6,18.8,30.03,South,188,0.0,8.0,50,0.00,,,0.00,0.00,VWS V14.00,2013-11-08 05:00:00,
2013-11-07 22:01:00,35.7,18.9,30.03,South,188,0.0,0.0,50,0.00,,,0.00,0.00,VWS V14.00,2013-11-08 05:01:00,
2013-11-07 22:03:00,35.9,19.1,30.03,South,187,0.0,1.0,50,0.00,,,0.00,0.00,VWS V14.00,2013-11-08 05:03:00,
2013-11-07 22:04:00,36.0,19.2,30.03,SSW,192,0.0,1.0,50,0.00,,,0.00,0.00,VWS V14.00,2013-11-08 05:04:00,
2013-11-07 22:09:00,36.5,19.2,30.03,West,271,1.0,4.0,49,0.00,,,0.00,0.00,VWS V14.00,2013-11-08 05:09:00,
2013-11-07 22:14:00,37.0,19.6,30.03,WNW,303,0.0,4.0,49,0.00,,,0.00,0.00,VWS V14.00,2013-11-08 05:14:00,
2013-11-07 22:15:00,37.1,19.2,30.03,NW,306,0.0,4.0,48,0.00,,,0.00,0.00,VWS V14.00,2013-11-08 05:15:00,
2013-11-07 22:20:00,37.6,19.7,30.02,ESE,109,0.0,5.0,48,0.00,,,0.00,0.00,VWS V14.00,2013-11-08 05:20:00,
2013-11-07 22:25:00,38.3,20.4,30.01,NNW,331,0.0,5.0,48,0.00,,,0.00,0.00,VWS V14.00,2013-11-08 05:25:00,
2013-11-07 22:30:00,38.6,20.1,30.01,ENE,74,0.0,5.0,47,0.00,,,0.00,0.00,VWS V14.00,2013-11-08 05:30:00,
2013-11-07 22:35:00,38.7,20.2,30.02,NW,313,0.0,7.0,47,0.00,,,0.00,0.00,VWS V14.00,2013-11-08 05:35:00,
2013-11-07 22:40:00,38.8,19.8,30.02,WNW,286,0.0,7.0,46,0.00,,,0.00,0.00,VWS V14.00,2013-11-08 05:40:00,
2013-11-07 22:45:00,39.1,19.6,30.01,NW,307,2.0,8.0,45,0.00,,,0.00,0.00,VWS V14.00,2013-11-08 05:45:00,
2013-11-07 22:50:00,39.5,19.4,30.01,WNW,296,1.0,7.0,44,0.00,,,0.00,0.00,VWS V14.00,2013-11-08 05:50:00,
2013-11-07 22:55:00,39.8,19.7,30.01,WNW,294,2.0,7.0,44,0.00,,,0.00,0.00,VWS V14.00,2013-11-08 05:55:00,
2013-11-07 23:00:00,39.9,19.2,30.00,SW,217,0.0,7.0,43,0.00,,,0.00,0.00,VWS V14.00,2013-11-08 06:00:00,
2013-11-07 23:05:00,40.0,19.3,30.00,WNW,285,0.0,6.0,43,0.00,,,0.00,0.00,VWS V14.00,2013-11-08 06:05:00,
2013-11-07 23:10:00,40.0,18.8,30.00,NNW,327,0.0,6.0,42,0.00,,,0.00,0.00,VWS V14.00,2013-11-08 06:10:00,
2013-11-07 23:15:00,40.0,19.3,30.00,WNW,282,0.0,7.0,43,0.00,,,0.00,0.00,VWS V14.00,2013-11-08 06:15:00,
2013-11-07 23:20:00,39.8,18.6,30.00,West,272,1.0,6.0,42,0.00,,,0.00,0.00,VWS V14.00,2013-11-08 06:20:00,
2013-11-07 23:25:00,39.8,18.6,30.00,WNW,293,2.0,8.0,42,0.00,,,0.00,0.00,VWS V14.00,2013-11-08 06:25:00,
2013-11-07 23:30:00,39.9,18.7,29.99,West,268,6.0,9.0,42,0.00,,,0.00,0.00,VWS V14.00,2013-11-08 06:30:00,
2013-11-07 23:31:00,39.9,18.7,29.99,NW,312,5.0,8.0,42,0.00,,,0.00,0.00,VWS V14.00,2013-11-08 06:31:00,
2013-11-07 23:36:00,40.1,18.3,29.99,North,355,2.0,20.0,41,0.00,,,0.00,0.00,VWS V14.00,2013-11-08 06:36:00,
2013-11-07 23:41:00,40.3,17.9,29.98,WNW,291,2.0,20.0,40,0.00,,,0.00,0.00,VWS V14.00,2013-11-08 06:41:00,
2013-11-07 23:45:00,40.4,18.0,29.98,WNW,290,0.0,20.0,40,0.00,,,0.00,0.00,VWS V14.00,2013-11-08 06:45:00,
2013-11-07 23:46:00,40.5,18.1,29.98,WNW,289,0.0,0.0,40,0.00,,,0.00,0.00,VWS V14.00,2013-11-08 06:46:00,
2013-11-07 23:51:00,40.5,18.1,29.97,NW,315,0.0,4.0,40,0.00,,,0.00,0.00,VWS V14.00,2013-11-08 06:51:00,
2013-11-07 23:56:00,40.4,18.0,29.97,NW,306,0.0,4.0,40,0.00,,,0.00,0.00,VWS V14.00,2013-11-08 06:56:00,